| time (UTC) | temp F | wind direction | speed MPH | gust MPH | rain 1hr in | rain 24hr in | rain mn in | humidity % | barometer mb |
| 20260906110027 | 56 | 323 | 0.0 | 4.0 | 0.00 | 0.01 | 0.00 | 93 | 1015.4 |
| 20260906104525 | 57 | 313 | 1.0 | 6.0 | 0.00 | 0.01 | 0.00 | 93 | 1015.1 |
| 20260906103023 | 57 | 360 | 1.0 | 5.0 | 0.00 | 0.01 | 0.00 | 93 | 1015.1 |
| 20260906101522 | 57 | 302 | 1.0 | 5.0 | 0.00 | 0.01 | 0.00 | 93 | 1015.0 |
| 20260906100019 | 57 | 334 | 0.0 | 6.0 | 0.00 | 0.01 | 0.00 | 93 | 1014.9 |
| 20260906094518 | 58 | 280 | 2.0 | 4.0 | 0.00 | 0.01 | 0.00 | 93 | 1014.9 |
| 20260906093032 | 58 | 297 | 0.0 | 4.0 | 0.00 | 0.01 | 0.00 | 93 | 1014.6 |
| 20260906091520 | 58 | 325 | 0.0 | 5.0 | 0.00 | 0.01 | 0.00 | 92 | 1014.5 |
| 20260906090013 | 58 | 325 | 0.0 | 1.0 | 0.00 | 0.01 | 0.00 | 92 | 1014.3 |
| 20260906084511 | 58 | 325 | 0.0 | 3.0 | 0.00 | 0.01 | 0.00 | 92 | 1014.3 |
| 20260906083011 | 58 | 302 | 0.0 | 1.0 | 0.00 | 0.01 | 0.00 | 92 | 1014.3 |
| 20260906081511 | 58 | 360 | 0.0 | 2.0 | 0.00 | 0.01 | 0.00 | 92 | 1014.1 |
| 20260906080009 | 58 | 9 | 0.0 | 2.0 | 0.00 | 0.01 | 0.00 | 92 | 1014.1 |
| 20260906074508 | 58 | 148 | 0.0 | 1.0 | 0.00 | 0.01 | 0.00 | 92 | 1014.0 |
| 20260906073015 | 58 | 148 | 0.0 | 1.0 | 0.00 | 0.01 | 0.00 | 92 | 1013.9 |
| 20260906071506 | 58 | 148 | 0.0 | 0.0 | 0.00 | 0.01 | 0.00 | 92 | 1013.7 |
| 20260906070005 | 58 | 148 | 0.0 | 0.0 | 0.00 | 0.01 | 0.00 | 91 | 1013.7 |
| 20260906064504 | 58 | 148 | 0.0 | 0.0 | 0.00 | 0.01 | 0.00 | 91 | 1013.6 |
| 20260906063006 | 58 | 148 | 0.0 | 0.0 | 0.00 | 0.01 | 0.00 | 91 | 1013.8 |
| 20260906061503 | 59 | 148 | 0.0 | 1.0 | 0.00 | 0.01 | 0.00 | 91 | 1013.9 |
| 20260906060002 | 59 | 148 | 0.0 | 0.0 | 0.00 | 0.01 | 0.00 | 91 | 1013.7 |
| 20260906054501 | 59 | 148 | 0.0 | 0.0 | 0.00 | 0.01 | 0.00 | 91 | 1013.9 |
| 20260906053100 | 59 | 148 | 0.0 | 0.0 | 0.00 | 0.01 | 0.00 | 90 | 1013.9 |
| 20260906051559 | 59 | 148 | 0.0 | 0.0 | 0.00 | 0.01 | 0.00 | 90 | 1013.8 |
| 20260906050111 | 59 | 148 | 0.0 | 0.0 | 0.01 | 0.01 | 0.00 | 90 | 1013.9 |
| 20260906044556 | 60 | 148 | 0.0 | 3.0 | 0.01 | 0.01 | 0.00 | 90 | 1013.9 |
| 20260906043107 | 60 | 147 | 0.0 | 2.0 | 0.01 | 0.01 | 0.00 | 89 | 1014.0 |
| 20260906041552 | 61 | 147 | 0.0 | 1.0 | 0.01 | 0.01 | 0.00 | 88 | 1014.0 |
| 20260906040109 | 61 | 100 | 0.0 | 2.0 | 0.00 | 0.00 | 0.00 | 87 | 1014.0 |
| 20260906034548 | 62 | 115 | 0.0 | 1.0 | 0.00 | 0.00 | 0.00 | 85 | 1013.9 |
| 20260906033050 | 62 | 351 | 0.0 | 3.0 | 0.00 | 0.00 | 0.00 | 84 | 1013.5 |
| 20260906031545 | 62 | 20 | 0.0 | 0.0 | 0.00 | 0.00 | 0.00 | 82 | 1013.5 |
| 20260906030043 | 62 | 20 | 0.0 | 2.0 | 0.00 | 0.00 | 0.00 | 82 | 1013.4 |
| 20260906024542 | 62 | 34 | 0.0 | 2.0 | 0.00 | 0.00 | 0.00 | 82 | 1013.2 |
| 20260906023058 | 62 | 198 | 0.0 | 1.0 | 0.00 | 0.00 | 0.00 | 83 | 1013.2 |
| 20260906021542 | 62 | 198 | 0.0 | 3.0 | 0.00 | 0.00 | 0.00 | 84 | 1013.1 |
| 20260906020041 | 63 | 331 | 0.0 | 1.0 | 0.00 | 0.00 | 0.00 | 85 | 1013.1 |
| 20260906014554 | 63 | 331 | 0.0 | 0.0 | 0.00 | 0.00 | 0.00 | 86 | 1013.3 |
| 20260906013041 | 63 | 331 | 0.0 | 0.0 | 0.00 | 0.00 | 0.00 | 86 | 1013.2 |
| 20260906011550 | 64 | 334 | 0.0 | 1.0 | 0.00 | 0.00 | 0.00 | 87 | 1013.1 |
| 20260906010038 | 64 | 334 | 0.0 | 0.0 | 0.00 | 0.00 | 0.00 | 87 | 1013.0 |
| 20260906004539 | 64 | 334 | 0.0 | 0.0 | 0.00 | 0.00 | 0.00 | 87 | 1012.9 |
| 20260906003035 | 64 | 334 | 0.0 | 1.0 | 0.00 | 0.00 | 0.00 | 87 | 1012.7 |
| 20260906001534 | 64 | 333 | 0.0 | 4.0 | 0.00 | 0.00 | 0.00 | 86 | 1012.6 |
| 20260906000032 | 65 | 307 | 0.0 | 3.0 | 0.00 | 0.00 | 0.00 | 86 | 1012.5 |
| 20260905234536 | 65 | 309 | 0.0 | 4.0 | 0.00 | 0.00 | 0.00 | 86 | 1012.5 |
| 20260905233030 | 65 | 21 | 0.0 | 3.0 | 0.00 | 0.00 | 0.00 | 85 | 1012.1 |
| 20260905231529 | 66 | 323 | 1.0 | 4.0 | 0.00 | 0.00 | 0.00 | 84 | 1012.1 |
| 20260905230028 | 66 | 13 | 1.0 | 5.0 | 0.00 | 0.00 | 0.00 | 83 | 1012.0 |
| 20260905224534 | 66 | 331 | 1.0 | 4.0 | 0.00 | 0.00 | 0.00 | 83 | 1012.1 |
| 20260905223032 | 66 | 294 | 0.0 | 4.0 | 0.00 | 0.00 | 0.00 | 82 | 1012.0 |
| 20260905221524 | 67 | 360 | 0.0 | 5.0 | 0.00 | 0.00 | 0.00 | 81 | 1011.8 |
| 20260905220024 | 67 | 294 | 1.0 | 5.0 | 0.00 | 0.00 | 0.00 | 81 | 1011.7 |
| 20260905214523 | 67 | 313 | 0.0 | 4.0 | 0.00 | 0.00 | 0.00 | 81 | 1011.7 |
| 20260905213022 | 67 | 324 | 2.0 | 6.0 | 0.00 | 0.00 | 0.00 | 82 | 1011.7 |
| 20260905211523 | 67 | 56 | 0.0 | 3.0 | 0.00 | 0.00 | 0.00 | 81 | 1011.5 |
| 20260905210020 | 67 | 294 | 1.0 | 7.0 | 0.00 | 0.00 | 0.00 | 80 | 1011.5 |
| 20260905204519 | 67 | 242 | 0.0 | 5.0 | 0.00 | 0.00 | 0.00 | 80 | 1011.3 |
| 20260905203020 | 67 | 329 | 1.0 | 6.0 | 0.00 | 0.00 | 0.00 | 81 | 1011.2 |
| 20260905201521 | 68 | 323 | 2.0 | 8.0 | 0.00 | 0.00 | 0.00 | 81 | 1011.2 |
| 20260905200018 | 68 | 319 | 1.0 | 9.0 | 0.00 | 0.00 | 0.00 | 80 | 1011.1 |
| 20260905194518 | 68 | 355 | 2.0 | 10.0 | 0.00 | 0.00 | 0.00 | 80 | 1011.2 |
| 20260905193021 | 68 | 355 | 2.0 | 12.0 | 0.00 | 0.00 | 0.00 | 81 | 1011.1 |
| 20260905191516 | 67 | 319 | 0.0 | 1.0 | 0.00 | 0.00 | 0.00 | 87 | 1011.1 |
| 20260905190037 | 67 | 320 | 0.0 | 1.0 | 0.00 | 0.00 | 0.00 | 85 | 1011.1 |
| 20260905184514 | 67 | 273 | 0.0 | 7.0 | 0.00 | 0.00 | 0.00 | 83 | 1011.2 |
| 20260905183016 | 68 | 295 | 1.0 | 10.0 | 0.00 | 0.00 | 0.00 | 80 | 1011.0 |
| 20260905181517 | 68 | 169 | 0.0 | 9.0 | 0.00 | 0.00 | 0.00 | 80 | 1011.0 |
| 20260905180019 | 68 | 334 | 1.0 | 6.0 | 0.00 | 0.00 | 0.00 | 80 | 1011.0 |
| 20260905174510 | 68 | 294 | 3.0 | 7.0 | 0.00 | 0.00 | 0.00 | 80 | 1010.9 |
| 20260905173009 | 68 | 245 | 1.0 | 10.0 | 0.00 | 0.00 | 0.00 | 82 | 1010.9 |
| 20260905171508 | 67 | 355 | 2.0 | 8.0 | 0.00 | 0.00 | 0.00 | 83 | 1010.9 |
| 20260905170006 | 67 | 5 | 1.0 | 6.0 | 0.00 | 0.00 | 0.00 | 83 | 1011.0 |
| 20260905164505 | 67 | 259 | 1.0 | 8.0 | 0.00 | 0.00 | 0.00 | 84 | 1011.0 |
| 20260905163005 | 66 | 293 | 1.0 | 10.0 | 0.00 | 0.00 | 0.00 | 85 | 1011.2 |
| 20260905161503 | 66 | 62 | 1.0 | 9.0 | 0.00 | 0.00 | 0.00 | 84 | 1011.3 |
| 20260905160001 | 66 | 313 | 2.0 | 8.0 | 0.00 | 0.00 | 0.00 | 85 | 1011.2 |
| 20260905154502 | 66 | 355 | 1.0 | 8.0 | 0.00 | 0.00 | 0.00 | 86 | 1011.3 |
| 20260905153111 | 66 | 350 | 0.0 | 11.0 | 0.00 | 0.00 | 0.00 | 86 | 1011.4 |
| 20260905151558 | 65 | 34 | 1.0 | 9.0 | 0.00 | 0.00 | 0.00 | 88 | 1011.4 |
| 20260905150055 | 64 | 321 | 0.0 | 6.0 | 0.00 | 0.00 | 0.00 | 89 | 1011.4 |
| 20260905144555 | 64 | 319 | 1.0 | 6.0 | 0.00 | 0.00 | 0.00 | 89 | 1011.2 |
| 20260905143054 | 64 | 348 | 4.0 | 7.0 | 0.00 | 0.00 | 0.00 | 89 | 1011.3 |
| 20260905141556 | 63 | 329 | 2.0 | 6.0 | 0.00 | 0.00 | 0.00 | 90 | 1011.4 |
| 20260905134548 | 63 | 51 | 1.0 | 9.0 | 0.00 | 0.00 | 0.00 | 93 | 1011.3 |
| 20260905133047 | 62 | 273 | 1.0 | 6.0 | 0.00 | 0.00 | 0.00 | 93 | 1011.3 |
| 20260905131559 | 61 | 305 | 0.0 | 5.0 | 0.00 | 0.00 | 0.00 | 93 | 1011.1 |
| 20260905130049 | 61 | 49 | 0.0 | 3.0 | 0.00 | 0.00 | 0.00 | 93 | 1011.1 |
| 20260905124544 | 60 | 5 | 1.0 | 6.0 | 0.00 | 0.00 | 0.00 | 93 | 1011.0 |
| 20260905123043 | 60 | 355 | 0.0 | 2.0 | 0.00 | 0.00 | 0.00 | 93 | 1011.1 |
| 20260905121542 | 59 | 294 | 0.0 | 1.0 | 0.00 | 0.00 | 0.00 | 93 | 1010.9 |
| 20260905120042 | 59 | 294 | 0.0 | 0.0 | 0.00 | 0.00 | 0.00 | 93 | 1010.8 |
| 20260905114540 | 58 | 324 | 0.0 | 1.0 | 0.00 | 0.00 | 0.00 | 93 | 1010.8 |
| 20260905113038 | 58 | 324 | 0.0 | 0.0 | 0.00 | 0.00 | 0.00 | 93 | 1010.8 |
| 20260905111600 | 58 | 324 | 0.0 | 0.0 | 0.00 | 0.00 | 0.00 | 93 | 1010.6 |